Regional Weather Roundup
Issued by NWS Sterling, VA

Home | Current Version | Previous Version | Graphics & Text | Print | Product List | Glossary On
Versions: 1 2 3 4 5 6 7 8 9 10 11 12 13 14 15 16 17 18 19 20 21 22 23 24 25 26 27 28 29 30 31 32 33 34 35 36 37 38 39 40 41 42 43 44 45 46 47 48 49 50
000
ASUS41 KLWX 281410
RWRLWX

REGIONAL WEATHER ROUNDUP
NATIONAL WEATHER SERVICE BALTIMORE MD/WASHINGTON DC
900 AM EST SAT FEB 28 2015

Note: "FAIR" indicates few or no clouds below 12,000 feet
with no significant weather and/or obstructions to visibility.
 TC=TEMPERATURE CELSIUS

 * =Non NWS site. Station does not report precipitation (e.g. rain,
    snow, etc.), thunder, or fog.

DCZ001-MDZ009-015-VAZ040>042-051-053>054-281500-
WASHINGTON METRO

CITY           SKY/WX    TMP DP  RH WIND       PRES   REMARKS
WASHINGTON NAT PTSUNNY   23   0  36 N9        30.87R WCI  13
DULLES         PTSUNNY   17  -1  45 NE5       30.85R
ANDREWS AFB    MOSUNNY   20  -1  39 N10       30.84R WCI   9
FT BELVOIR     SUNNY     22  -1  36 N6        30.86R
QUANTICO       MOSUNNY   22   0  38 N8        30.88R WCI  12
COLLEGE PARK*  SUNNY     21   0  39 N6        30.86R
LEESBURG*      SUNNY     21   3  45 N5        30.84S
MANASSAS*      SUNNY     19   7  58 N7        30.85R
GAITHERSBURG*  SUNNY     18   0  45 NE8       30.86R WCI   7

$$

MDZ006>007-011-014-281500-
BALTIMORE METRO

CITY           SKY/WX    TMP DP  RH WIND       PRES   REMARKS
BWI AIRPORT    PTSUNNY   19  -1  41 VRB5      30.85R
MD SCIENCE CTR   N/A     19  -2  39 MISG      30.80F
MARTIN STATE   PTSUNNY   19   0  42 N6        30.87R
ANNAPOLIS      MOSUNNY   21   2  43 N8        30.86R WCI  11
FORT MEADE*    SUNNY     19   0  42 N5        30.88R

$$

MDZ012-015-019>023-281500-
MARYLAND EASTERN SHORE

CITY           SKY/WX    TMP DP  RH WIND       PRES   REMARKS
OCEAN CITY     SUNNY     23   7  50 NE15G21   30.82R WCI  10
SALISBURY      MOSUNNY   24   8  50 VRB7      30.83R
BAY BRIDGE AP*   N/A     21   3  45 N8        30.86R WCI  12
CAMBRIDGE*     MOSUNNY   23   5  46 N7        30.84R
EASTON*        MOSUNNY   21   7  53 NE9       30.88R WCI  11

$$

MDZ017>025-281500-
SOUTHERN MARYLAND

CITY           SKY/WX    TMP DP  RH WIND       PRES   REMARKS
PATUXENT RIVER CLOUDY    22   6  50 N15       30.85R WCI   9
ST INIGOES     MOSUNNY   23   4  44 N9        30.84R WCI  13
LEONARDTOWN*   MOSUNNY   21   5  49 N6        30.86R

$$

MDZ003>005-281500-
NORTH CENTRAL MARYLAND

CITY           SKY/WX    TMP DP  RH WIND       PRES   REMARKS
FREDERICK*     SUNNY     18   3  53 CALM      30.87R
HAGERSTOWN APT SUNNY     18   1  47 NW6       30.80R
WESTMINSTER*   SUNNY     14  -4  44 N6        30.79R

$$

MDZ501>502-281500-
WESTERN MARYLAND

CITY           SKY/WX    TMP DP  RH WIND       PRES   REMARKS
OAKLAND*       MOSUNNY    9  -8  47 SE6       30.56R
CUMBERLAND*    MOSUNNY   18   1  49 CALM      30.84R

$$

VAZ025>031-281500-
SHENANDOAH VALLEY

CITY           SKY/WX    TMP DP  RH WIND       PRES   REMARKS
WINCHESTER*    SUNNY     19  -4  35 CALM      30.81R
FRONT ROYAL*   FAIR      18   1  49 CALM      30.81R
LURAY*         FAIR      21   7  53 CALM      30.80R
NEW MARKET*    FAIR       9   3  78 CALM      30.78R
STAUNTON*      SUNNY     15   2  58 CALM      30.79R
WAYNESBORO*    FAIR      13   2  62 NW3       30.75R

$$

WVZ021-048>050-054>055-281500-
EASTERN WEST VIRGINIA PANHANDLE

CITY           SKY/WX    TMP DP  RH WIND       PRES   REMARKS
MARTINSBURG    SUNNY     20  -1  40 NE5       30.82R
PETERSBURG*    NOT AVBL

$$

VAZ036>039-050-281500-
CENTRAL FOOTHILLS

CITY           SKY/WX    TMP DP  RH WIND       PRES   REMARKS
CHARLOTTESVILL SUNNY     18   2  49 N3        30.83R
CULPEPER*      SUNNY     21   5  49 N5        30.86R
ORANGE*        SUNNY     21   3  45 N9        30.85R WCI  11
GORDONSVILLE*  FAIR      18   1  46 CALM      30.84R
WARRENTON*     FAIR      21   9  58 N3        30.85R

$$

VAZ055>057-281500-
NORTH AND CENTRAL PIEDMONT

CITY           SKY/WX    TMP DP  RH WIND       PRES   REMARKS
FREDERICKSBRG* MOSUNNY   23   3  41 N8        30.86R WCI  14
STAFFORD*      MOSUNNY   20  -2  37 N6        30.90R

$$

NCZ024-NYZ072-PAZ021-071-VAZ022-071-281500-
OTHER REGIONAL OBSERVATIONS

CITY           SKY/WX    TMP DP  RH WIND       PRES   REMARKS
NEW YORK CITY  SUNNY     17  -2  43 N5        30.83R
PHILADELPHIA   MOSUNNY   20  -2  38 N9        30.86R WCI   9
PITTSBURGH     MOSUNNY    7   1  76 CALM      30.73R
ROANOKE        PTSUNNY   20   9  62 SE6       30.77R
RICHMOND       CLOUDY    25   4  40 NE10      30.85R WCI  15
RALEIGH        PTSUNNY   27  14  58 E13       30.78R WCI  16

$$

ANZ530>537-281500-
MARINE OBSERVATIONS

STATION/POSITION TIME  TEMP    WIND        PRES
                       AIR SEA DIR/SP/G
                 (UTC) (F)     (DEG/KT/KT) (MB)
THOMAS PT LIGHT  1400   19 30   20/ 14/ 15 1045.8R
BALT KEY BRIDGE  1300   18     340/  7/  9 1044.3R
COVE POINT       1300   20      20/ 12/ 16 1043.3R
LEWISETTA        1300   22 31              1043.4R
SOLOMONS ISLAND  1300      32                N/A

$$




USA.gov is the U.S. government's official web portal to all federal, state and local government web resources and services.